Weather History for VOTR - November, 2012

Change the Weather History Date:

Sunday, November 25, 2012

  Actual Average Record
Temperature  
Mean Temperature 81 °F -  
Max Temperature 88 °F 82 °F 89 °F (1997)
Min Temperature 74 °F 72 °F 68 °F (2007)
Cooling Degree Days 16    
Growing Degree Days 31 (Base 50)    
Moisture  
Dew Point 74 °F    
Average Humidity 81    
Maximum Humidity 94    
Minimum Humidity 53    
Precipitation  
Precipitation 0.03 in - - ()
Sea Level Pressure  
Sea Level Pressure 29.88 in    
Wind  
Wind Speed 5 mph ()    
Max Wind Speed 10 mph    
Max Gust Speed -    
Visibility 2.4 miles    
Events Rain    
Averages and records for this station are not official NWS values.
T = Trace of Precipitation, MM = Missing Value Source: Averaged Metar Reports

Daily Weather History Graph

Daily Weather History Graph

Search for Another Location

Airport or City:

Trip Planner

Search our weather history database for the weather conditions in past years. The results will help you decide how hot, cold, wet, or windy it might be!

Date:

Astronomy

Nov. 25, 2012 Rise Set
Actual Time 6:15 AM IST 5:49 PM IST
Civil Twilight 5:52 AM IST 6:11 PM IST
Nautical Twilight 5:26 AM IST 6:37 PM IST
Astronomical Twilight 5:00 AM IST 7:03 PM IST
Moon 3:30 PM IST (11/25) 3:27 AM IST (11/25)
Length of Visible Light 12h 19m
Length of Day
11h 34m
Waxing Gibbous, 90% of the Moon is Illuminated
Nov 25
Waxing Gibbous
Nov 28
Full
Dec 6
Last Quarter
Dec 13
New
Dec 20
First Quarter

Hourly Weather History & Observations

Time (IST) Temp. Heat Index Dew Point Humidity Pressure Visibility Wind Dir Wind Speed Gust Speed Precip Events Conditions
12:10 AM 77.0 °F - 73.4 °F 89% 29.89 in 2.5 mi NNE 4.6 mph - N/A   Haze
12:40 AM 77.0 °F - 73.4 °F 89% 29.89 in 2.5 mi NNE 4.6 mph - N/A   Haze
1:10 AM 77.0 °F - 73.4 °F 89% 29.86 in 2.5 mi NE 5.8 mph - N/A   Haze
1:40 AM 77.0 °F - 73.4 °F 89% 29.86 in 2.5 mi NNE 4.6 mph - N/A   Haze
2:10 AM 77.0 °F - 73.4 °F 89% 29.86 in 2.5 mi NNE 4.6 mph - N/A   Haze
2:30 AM 77 °F - 73 °F 83% 29.84 in 2 mi ENE 4.6 mph - -   Haze
2:40 AM 77.0 °F - 73.4 °F 89% 29.83 in 2.5 mi NE 5.8 mph - N/A   Haze
3:10 AM 77.0 °F - 71.6 °F 83% 29.83 in 2.5 mi ENE 5.8 mph - N/A   Haze
3:40 AM 77.0 °F - 71.6 °F 83% 29.83 in 2.5 mi NE 5.8 mph - N/A   Haze
4:10 AM 77.0 °F - 71.6 °F 83% 29.83 in 2.5 mi NNE 5.8 mph - N/A   Haze
4:40 AM 75.2 °F - 73.4 °F 94% 29.83 in 2.5 mi NNE 5.8 mph - N/A   Haze
5:10 AM 75.2 °F - 73.4 °F 94% 29.83 in 2.5 mi NNE 6.9 mph - N/A   Haze
5:30 AM 75 °F - 72 °F 89% 29.85 in 2 mi NNE 4.6 mph - -   Haze
5:40 AM 75.2 °F - 73.4 °F 94% 29.86 in 2.5 mi NE 5.8 mph - N/A   Haze
6:10 AM 75.2 °F - 73.4 °F 94% 29.86 in 2.5 mi NE 5.8 mph - N/A   Haze
6:40 AM 75.2 °F - 73.4 °F 94% 29.86 in 2.5 mi NNE 4.6 mph - N/A   Haze
7:10 AM 77.0 °F - 71.6 °F 83% 29.89 in 2.5 mi NNE 4.6 mph - N/A   Haze
7:40 AM 78.8 °F - 71.6 °F 78% 29.92 in 2.5 mi NE 3.5 mph - N/A   Haze
8:30 AM 79 °F - 72 °F 75% 29.94 in 1 mi NNE 6.9 mph - -   Haze
8:40 AM 78.8 °F - 73.4 °F 83% 29.95 in 1.9 mi NNE 5.8 mph - N/A   Haze
9:10 AM 80.6 °F 85.4 °F 73.4 °F 79% 29.95 in 1.9 mi North 6.9 mph - N/A   Haze
9:40 AM 82.4 °F 88.2 °F 73.4 °F 74% 29.95 in 2.5 mi North 8.1 mph - N/A   Haze
10:10 AM 82.4 °F 88.2 °F 73.4 °F 74% 29.95 in 2.5 mi NNE 9.2 mph - N/A   Haze
10:40 AM 84.2 °F 90.9 °F 73.4 °F 70% 29.95 in 2.5 mi NE 10.4 mph - N/A   Haze
11:10 AM 84.2 °F 90.9 °F 73.4 °F 70% 29.95 in 2.5 mi NE 10.4 mph - N/A   Haze
11:30 AM 84 °F - 74 °F 64% 29.93 in 2 mi NE 9.2 mph - -   Haze
11:40 AM 84.2 °F 92.3 °F 75.2 °F 74% 29.95 in 2.5 mi NE 10.4 mph - N/A   Haze
12:40 PM 86.0 °F 93.4 °F 73.4 °F 66% 29.89 in 3.1 mi ENE 8.1 mph - N/A   Haze
1:10 PM 86.0 °F 93.4 °F 73.4 °F 66% 29.89 in 3.1 mi NE 10.4 mph - N/A   Haze
1:40 PM 86.0 °F 93.4 °F 73.4 °F 66% 29.86 in 3.1 mi ENE 9.2 mph - N/A   Haze
2:10 PM 86.0 °F 93.4 °F 73.4 °F 66% 29.83 in 3.1 mi NE 10.4 mph - N/A   Haze
2:30 PM 87 °F - 72 °F 53% 29.83 in 2 mi NE 5.8 mph - -   Haze
2:40 PM 86.0 °F 93.4 °F 73.4 °F 66% 29.83 in 3.1 mi NE 6.9 mph - N/A   Haze
4:10 PM 84.2 °F 94.1 °F 77.0 °F 79% 29.83 in 1.9 mi ESE 3.5 mph - N/A   Light Drizzle
4:40 PM 84.2 °F 94.1 °F 77.0 °F 79% 29.83 in 2.5 mi ESE 3.5 mph - N/A   Haze
5:10 PM 84.2 °F 94.1 °F 77.0 °F 79% 29.86 in 2.5 mi ESE 2.3 mph - N/A   Haze
5:30 PM 81 °F - 74 °F 75% 29.84 in 2 mi East 2.3 mph - - Rain Drizzle
5:40 PM 82.4 °F 89.5 °F 75.2 °F 79% 29.83 in 2.5 mi East 2.3 mph - N/A   Haze
6:10 PM 82.4 °F 89.5 °F 75.2 °F 79% 29.86 in 2.5 mi East 2.3 mph - N/A   Haze
6:40 PM 80.6 °F 86.2 °F 75.2 °F 84% 29.89 in 2.5 mi East 4.6 mph - N/A   Haze
7:10 PM 80.6 °F 85.4 °F 73.4 °F 79% 29.89 in 2.5 mi East 5.8 mph - N/A   Haze
7:40 PM 80.6 °F 85.4 °F 73.4 °F 79% 29.89 in 2.5 mi East 2.3 mph - N/A   Haze
8:10 PM 80.6 °F 86.2 °F 75.2 °F 84% 29.92 in 2.5 mi ENE 3.5 mph - N/A   Haze
8:30 PM 80 °F - 75 °F 80% 29.91 in 1 mi East 4.6 mph - -   Haze
8:40 PM 78.8 °F - 75.2 °F 89% 29.92 in 2.5 mi ENE 5.8 mph - N/A   Haze
9:10 PM 78.8 °F - 75.2 °F 89% 29.92 in 2.5 mi ENE 6.9 mph - N/A   Haze
9:40 PM 78.8 °F - 75.2 °F 89% 29.92 in 2.5 mi ENE 5.8 mph - N/A   Haze
10:10 PM 78.8 °F - 75.2 °F 89% 29.92 in 2.5 mi NE 5.8 mph - N/A   Haze
10:40 PM 77.0 °F - 73.4 °F 89% 29.92 in 2.5 mi NNE 5.8 mph - N/A   Haze
11:10 PM 77.0 °F - 73.4 °F 89% 29.92 in 2.5 mi NNE 6.9 mph - N/A   Haze
11:30 PM 77 °F - 74 °F 88% 29.91 in 1 mi NNE 9.2 mph - -   Haze
11:40 PM 77.0 °F - 75.2 °F 94% 29.92 in 2.5 mi NNE 6.9 mph - N/A   Haze